N6091 KHWO-KX01

Flight info

Callsign N6091
Flight time N/A
Altitude 8000
Route WUDIP
Aircraft C208/L-SDFGR/C

Departure

Time 2026-04-29 22:43
Airport North Perry Airport (KHWO)

Arrival

Time N/A
Airport KX01
Time Latitude Longitude Altitude Speed Heading
2026-04-29 22:34 25.99684 -80.23595 18 ft 0 kts 183°
2026-04-29 22:39 25.99680 -80.23632 18 ft 10 kts 271°
2026-04-29 22:39 25.99693 -80.23709 19 ft 9 kts 285°
2026-04-29 22:39 25.99737 -80.23741 18 ft 7 kts 346°
2026-04-29 22:39 25.99755 -80.23795 17 ft 11 kts 257°
2026-04-29 22:40 25.99755 -80.23884 16 ft 11 kts 272°
2026-04-29 22:40 25.99760 -80.23960 15 ft 9 kts 271°
2026-04-29 22:40 25.99758 -80.24015 15 ft 6 kts 262°
2026-04-29 22:40 25.99754 -80.24056 14 ft 7 kts 257°
2026-04-29 22:41 25.99754 -80.24116 14 ft 9 kts 291°
2026-04-29 22:41 25.99759 -80.24211 13 ft 14 kts 272°
2026-04-29 22:41 25.99763 -80.24309 13 ft 6 kts 292°
2026-04-29 22:41 25.99788 -80.24327 13 ft 3 kts 350°
2026-04-29 22:42 25.99795 -80.24328 13 ft 0 kts 350°
2026-04-29 22:42 25.99813 -80.24322 13 ft 10 kts 45°
2026-04-29 22:42 25.99823 -80.24178 14 ft 32 kts 91°
2026-04-29 22:42 25.99807 -80.23796 19 ft 64 kts 100°
2026-04-29 22:43 25.99826 -80.23269 95 ft 71 kts 90°
2026-04-29 22:43 25.99937 -80.22691 233 ft 82 kts 68°
2026-04-29 22:43 26.00368 -80.22248 520 ft 97 kts 29°
2026-04-29 22:43 26.01031 -80.22399 771 ft 106 kts 322°
2026-04-29 22:44 26.01316 -80.23122 904 ft 106 kts 264°
2026-04-29 22:44 26.01204 -80.23975 977 ft 112 kts 234°
2026-04-29 22:44 26.00922 -80.24943 819 ft 155 kts 251°
2026-04-29 22:44 26.00680 -80.26181 764 ft 164 kts 255°
2026-04-29 22:45 26.00523 -80.27426 973 ft 157 kts 260°
2026-04-29 22:45 26.00425 -80.28611 1114 ft 157 kts 259°
2026-04-29 22:45 26.00301 -80.29877 1042 ft 167 kts 257°
2026-04-29 22:45 26.00135 -80.31109 1210 ft 154 kts 254°
2026-04-29 22:46 25.99930 -80.32314 1099 ft 166 kts 254°
2026-04-29 22:46 25.99691 -80.33508 1301 ft 151 kts 250°
2026-04-29 22:46 25.99436 -80.34650 1243 ft 161 kts 250°
2026-04-29 22:46 25.99122 -80.35860 1254 ft 157 kts 249°
2026-04-29 22:47 25.98797 -80.36975 1351 ft 152 kts 247°
2026-04-29 22:47 25.98593 -80.38137 1317 ft 158 kts 265°
2026-04-29 22:47 25.98643 -80.39323 1519 ft 147 kts 269°
2026-04-29 22:47 25.98717 -80.40419 1735 ft 138 kts 269°
2026-04-29 22:48 25.98771 -80.41452 1953 ft 133 kts 267°
2026-04-29 22:48 25.98803 -80.42471 2181 ft 128 kts 269°
2026-04-29 22:48 25.98839 -80.43424 2412 ft 123 kts 269°
2026-04-29 22:48 25.98876 -80.44367 2632 ft 121 kts 269°
2026-04-29 22:49 25.98913 -80.45277 2861 ft 115 kts 270°
2026-04-29 22:49 25.98948 -80.46148 3086 ft 112 kts 271°
2026-04-29 22:49 25.98984 -80.47033 3186 ft 118 kts 272°
2026-04-29 22:49 25.99023 -80.47994 3223 ft 131 kts 272°
2026-04-29 22:50 25.99065 -80.49037 3313 ft 136 kts 272°
2026-04-29 22:50 25.99108 -80.50060 3469 ft 133 kts 272°
2026-04-29 22:50 25.99150 -80.51097 3625 ft 133 kts 272°
2026-04-29 22:50 25.99191 -80.52113 3769 ft 133 kts 272°
2026-04-29 22:51 25.99233 -80.53137 3914 ft 131 kts 272°
2026-04-29 22:51 25.99273 -80.54142 4044 ft 131 kts 272°
2026-04-29 22:51 25.99355 -80.56185 4317 ft 133 kts 272°
2026-04-29 22:52 25.99397 -80.57216 4462 ft 134 kts 272°
2026-04-29 22:52 25.99439 -80.58266 4518 ft 142 kts 272°
2026-04-29 22:52 25.99483 -80.59360 4521 ft 145 kts 272°
2026-04-29 22:52 25.99529 -80.60493 4519 ft 148 kts 272°
2026-04-29 22:53 25.99575 -80.61644 4521 ft 150 kts 272°
2026-04-29 22:53 25.99621 -80.62806 4513 ft 151 kts 272°
2026-04-29 22:53 25.99668 -80.63976 4516 ft 152 kts 272°
2026-04-29 22:53 25.99714 -80.65150 4515 ft 152 kts 272°
2026-04-29 22:54 25.99761 -80.66326 4514 ft 153 kts 272°
2026-04-29 22:54 25.99808 -80.67503 4515 ft 153 kts 271°
2026-04-29 22:54 25.99854 -80.68667 4514 ft 153 kts 272°
2026-04-29 22:54 25.99901 -80.69862 4515 ft 153 kts 272°
2026-04-29 22:55 25.99946 -80.71026 4516 ft 153 kts 272°
2026-04-29 22:55 25.99993 -80.72205 4514 ft 153 kts 271°
2026-04-29 22:55 26.00039 -80.73383 4515 ft 153 kts 271°
2026-04-29 22:55 26.00085 -80.74562 4515 ft 153 kts 271°
2026-04-29 22:56 26.00050 -80.75731 4497 ft 151 kts 256°
2026-04-29 22:56 25.99771 -80.76852 4489 ft 151 kts 254°
2026-04-29 22:56 25.99503 -80.77984 4495 ft 151 kts 255°
2026-04-29 22:56 25.99236 -80.79116 4493 ft 152 kts 255°
2026-04-29 22:57 25.98971 -80.80234 4500 ft 152 kts 255°
2026-04-29 22:57 25.98702 -80.81371 4501 ft 152 kts 255°
2026-04-29 22:57 25.98433 -80.82503 4495 ft 152 kts 254°
2026-04-29 22:57 25.98162 -80.83641 4502 ft 152 kts 255°
2026-04-29 22:58 25.97892 -80.84777 4502 ft 152 kts 255°
2026-04-29 22:58 25.97622 -80.85916 4502 ft 152 kts 255°
2026-04-29 22:58 25.97351 -80.87053 4497 ft 152 kts 255°
2026-04-29 22:58 25.97081 -80.88191 4497 ft 152 kts 255°
2026-04-29 22:59 25.96815 -80.89310 4510 ft 151 kts 255°
2026-04-29 22:59 25.96548 -80.90430 4500 ft 150 kts 255°
2026-04-29 22:59 25.96280 -80.91556 4503 ft 152 kts 255°
2026-04-29 22:59 25.96006 -80.92706 4497 ft 156 kts 255°
2026-04-29 23:00 25.95724 -80.93886 4501 ft 159 kts 255°
2026-04-29 23:00 25.95442 -80.95073 4509 ft 159 kts 255°
2026-04-29 23:00 25.95158 -80.96261 4509 ft 160 kts 255°
2026-04-29 23:00 25.94871 -80.97464 4504 ft 161 kts 255°
2026-04-29 23:01 25.94583 -80.98671 4508 ft 163 kts 255°
2026-04-29 23:01 25.94296 -80.99873 4512 ft 163 kts 255°
2026-04-29 23:01 25.94004 -81.01097 4516 ft 164 kts 256°
2026-04-29 23:01 25.93711 -81.02320 4506 ft 165 kts 255°
2026-04-29 23:02 25.93416 -81.03556 4512 ft 166 kts 255°
2026-04-29 23:02 25.93120 -81.04793 4507 ft 166 kts 255°
2026-04-29 23:02 25.92825 -81.06028 4522 ft 165 kts 255°
2026-04-29 23:02 25.92530 -81.07260 4513 ft 165 kts 255°
2026-04-29 23:03 25.92143 -81.08444 4503 ft 163 kts 238°
2026-04-29 23:03 25.91493 -81.09467 4503 ft 162 kts 233°
2026-04-29 23:03 25.90875 -81.10487 4501 ft 161 kts 236°
2026-04-29 23:03 25.90269 -81.11546 4501 ft 163 kts 236°
2026-04-29 23:04 25.89665 -81.12614 4504 ft 164 kts 237°
2026-04-29 23:04 25.89055 -81.13693 4463 ft 167 kts 237°
2026-04-29 23:04 25.88424 -81.14807 4329 ft 174 kts 237°
2026-04-29 23:04 25.87774 -81.15955 4198 ft 177 kts 237°
2026-04-29 23:05 25.87117 -81.17114 4062 ft 178 kts 237°
2026-04-29 23:05 25.86455 -81.18283 3921 ft 179 kts 237°
2026-04-29 23:05 25.85802 -81.19435 3779 ft 178 kts 237°
2026-04-29 23:05 25.85147 -81.20590 3633 ft 175 kts 237°
2026-04-29 23:06 25.84504 -81.21725 3485 ft 171 kts 237°
2026-04-29 23:06 25.84081 -81.22471 3388 ft 168 kts 237°
2026-04-29 23:06 25.83260 -81.23916 3191 ft 166 kts 237°
2026-04-29 23:06 25.82647 -81.24996 3043 ft 164 kts 238°
2026-04-29 23:07 25.82042 -81.26062 2892 ft 162 kts 237°
2026-04-29 23:07 25.81445 -81.27114 2742 ft 160 kts 238°
2026-04-29 23:07 25.80864 -81.28137 2647 ft 156 kts 238°
2026-04-29 23:07 25.80285 -81.29157 2468 ft 157 kts 237°
2026-04-29 23:08 25.79704 -81.30179 2303 ft 157 kts 237°
2026-04-29 23:08 25.79121 -81.31204 2136 ft 155 kts 238°
2026-04-29 23:08 25.78561 -81.32193 1958 ft 148 kts 238°
2026-04-29 23:08 25.78244 -81.33233 1754 ft 138 kts 265°
2026-04-29 23:09 25.78382 -81.34235 1551 ft 129 kts 291°
2026-04-29 23:09 25.78863 -81.35033 1350 ft 123 kts 313°
2026-04-29 23:09 25.79553 -81.35546 1138 ft 115 kts 326°
2026-04-29 23:09 25.80206 -81.35972 958 ft 104 kts 323°
2026-04-29 23:10 25.80834 -81.36384 864 ft 107 kts 323°
2026-04-29 23:10 25.81445 -81.36782 716 ft 96 kts 324°
2026-04-29 23:10 25.82015 -81.37155 606 ft 95 kts 322°
2026-04-29 23:10 25.82600 -81.37537 482 ft 96 kts 323°
2026-04-29 23:11 25.83155 -81.37899 360 ft 90 kts 323°
2026-04-29 23:11 25.83709 -81.38260 243 ft 95 kts 321°
2026-04-29 23:11 25.84246 -81.38611 119 ft 88 kts 323°
2026-04-29 23:11 25.84625 -81.38860 9 ft 0 kts 140°